owner,sensor,date,latitude,longitude,vertical_datum,wind_speed,wind_to_direction,wind_speed_of_gust,qcFlag 
TCOON,ioos:station:TCOON:013:1,2019-06-01T00:24:00Z,27.4847,-97.3181,0.0,6.4,102.0,7.8,'11111222,11111222,11111222' 
TCOON,ioos:station:TCOON:013:1,2019-06-01T01:24:00Z,27.4847,-97.3181,0.0,5.3,104.0,6.6,'11111222,11111222,11111222' 
TCOON,ioos:station:TCOON:013:1,2019-06-01T02:24:00Z,27.4847,-97.3181,0.0,5.7,101.0,6.8,'11111222,11111222,11111222' 
TCOON,ioos:station:TCOON:013:1,2019-06-01T03:24:00Z,27.4847,-97.3181,0.0,6.4,107.0,8.1,'11111222,11111222,11111222' 
TCOON,ioos:station:TCOON:013:1,2019-06-01T04:24:00Z,27.4847,-97.3181,0.0,5.3,106.0,7.2,'11111222,11111222,11111222' 
TCOON,ioos:station:TCOON:013:1,2019-06-01T05:24:00Z,27.4847,-97.3181,0.0,5.3,120.0,8.1,'11111222,11111222,11111222' 
TCOON,ioos:station:TCOON:013:1,2019-06-01T06:24:00Z,27.4847,-97.3181,0.0,5.7,118.0,7.1,'11111222,11111222,11111222' 
TCOON,ioos:station:TCOON:013:1,2019-06-01T07:24:00Z,27.4847,-97.3181,0.0,5.8,126.0,7.5,'11111222,11111222,11111222' 
TCOON,ioos:station:TCOON:013:1,2019-06-01T08:24:00Z,27.4847,-97.3181,0.0,3.2,139.0,4.4,'11111222,11111222,11111222' 
TCOON,ioos:station:TCOON:013:1,2019-06-01T09:24:00Z,27.4847,-97.3181,0.0,3.6,141.0,4.7,'11111222,11111222,11111222' 
TCOON,ioos:station:TCOON:013:1,2019-06-01T10:24:00Z,27.4847,-97.3181,0.0,2.3,125.0,2.7,'11111222,11111222,11111222' 
TCOON,ioos:station:TCOON:013:1,2019-06-01T11:24:00Z,27.4847,-97.3181,0.0,2.2,125.0,2.9,'11111222,11111222,11111222' 
TCOON,ioos:station:TCOON:013:1,2019-06-01T12:24:00Z,27.4847,-97.3181,0.0,2.9,110.0,3.3,'11111222,11111222,11111222' 
TCOON,ioos:station:TCOON:013:1,2019-06-01T13:24:00Z,27.4847,-97.3181,0.0,3.2,94.0,4.1,'11111222,11111222,11111222' 
TCOON,ioos:station:TCOON:013:1,2019-06-01T14:24:00Z,27.4847,-97.3181,0.0,3.3,91.0,4.5,'11111222,11111222,11111222' 
TCOON,ioos:station:TCOON:013:1,2019-06-01T15:24:00Z,27.4847,-97.3181,0.0,6.2,106.0,7.4,'11111222,11111222,11111222' 
TCOON,ioos:station:TCOON:013:1,2019-06-01T16:24:00Z,27.4847,-97.3181,0.0,5.0,103.0,6.6,'11111222,11111222,11111222' 
TCOON,ioos:station:TCOON:013:1,2019-06-01T17:24:00Z,27.4847,-97.3181,0.0,5.2,121.0,7.2,'11111222,11111222,11111222' 
TCOON,ioos:station:TCOON:013:1,2019-06-01T18:24:00Z,27.4847,-97.3181,0.0,6.2,109.0,8.2,'11111222,11111222,11111222' 
TCOON,ioos:station:TCOON:013:1,2019-06-01T19:24:00Z,27.4847,-97.3181,0.0,5.2,99.0,7.1,'11111222,11111222,11111222' 
TCOON,ioos:station:TCOON:013:1,2019-06-01T20:24:00Z,27.4847,-97.3181,0.0,5.4,83.0,6.9,'11111222,11111222,11111222' 
TCOON,ioos:station:TCOON:013:1,2019-06-01T21:24:00Z,27.4847,-97.3181,0.0,5.6,99.0,6.9,'11111222,11111222,11111222' 
TCOON,ioos:station:TCOON:013:1,2019-06-01T22:24:00Z,27.4847,-97.3181,0.0,6.1,86.0,7.9,'11111222,11111222,11111222' 
TCOON,ioos:station:TCOON:013:1,2019-06-01T23:24:00Z,27.4847,-97.3181,0.0,6.2,106.0,8.1,'11111222,11111222,11111222' 
TCOON,ioos:station:TCOON:013:1,2019-06-02T00:24:00Z,27.4847,-97.3181,0.0,6.8,97.0,8.5,'11111222,11111222,11111222' 
TCOON,ioos:station:TCOON:013:1,2019-06-02T01:24:00Z,27.4847,-97.3181,0.0,6.2,108.0,7.9,'11111222,11111222,11111222' 
TCOON,ioos:station:TCOON:013:1,2019-06-02T02:24:00Z,27.4847,-97.3181,0.0,5.3,108.0,6.9,'11111222,11111222,11111222' 
TCOON,ioos:station:TCOON:013:1,2019-06-02T03:24:00Z,27.4847,-97.3181,0.0,6.2,115.0,7.7,'11111222,11111222,11111222' 
TCOON,ioos:station:TCOON:013:1,2019-06-02T04:24:00Z,27.4847,-97.3181,0.0,6.4,122.0,8.2,'11111222,11111222,11111222' 
TCOON,ioos:station:TCOON:013:1,2019-06-02T05:24:00Z,27.4847,-97.3181,0.0,6.0,121.0,7.5,'11111222,11111222,11111222' 
TCOON,ioos:station:TCOON:013:1,2019-06-02T06:24:00Z,27.4847,-97.3181,0.0,4.4,118.0,5.6,'11111222,11111222,11111222' 
TCOON,ioos:station:TCOON:013:1,2019-06-02T07:24:00Z,27.4847,-97.3181,0.0,5.8,128.0,6.8,'11111222,11111222,11111222' 
TCOON,ioos:station:TCOON:013:1,2019-06-02T08:24:00Z,27.4847,-97.3181,0.0,5.5,129.0,6.5,'11111222,11111222,11111222' 
TCOON,ioos:station:TCOON:013:1,2019-06-02T09:24:00Z,27.4847,-97.3181,0.0,5.4,120.0,6.8,'11111222,11111222,11111222' 
TCOON,ioos:station:TCOON:013:1,2019-06-02T10:24:00Z,27.4847,-97.3181,0.0,4.3,135.0,5.6,'11111222,11111222,11111222' 
TCOON,ioos:station:TCOON:013:1,2019-06-02T11:24:00Z,27.4847,-97.3181,0.0,4.2,127.0,5.3,'11111222,11111222,11111222' 
TCOON,ioos:station:TCOON:013:1,2019-06-02T12:30:00Z,27.4847,-97.3181,0.0,3.8,129.0,4.9,'11111222,11111222,11111222' 
TCOON,ioos:station:TCOON:013:1,2019-06-02T13:24:00Z,27.4847,-97.3181,0.0,3.9,117.0,5.1,'11111222,11111222,11111222' 
TCOON,ioos:station:TCOON:013:1,2019-06-02T14:24:00Z,27.4847,-97.3181,0.0,5.0,97.0,6.5,'11111222,11111222,11111222' 
TCOON,ioos:station:TCOON:013:1,2019-06-02T15:24:00Z,27.4847,-97.3181,0.0,5.1,86.0,6.7,'11111222,11111222,11111222' 
TCOON,ioos:station:TCOON:013:1,2019-06-02T16:24:00Z,27.4847,-97.3181,0.0,5.2,110.0,6.4,'11111222,11111222,11111222' 
TCOON,ioos:station:TCOON:013:1,2019-06-02T17:30:00Z,27.4847,-97.3181,0.0,5.9,89.0,7.7,'11111222,11111222,11111222' 
TCOON,ioos:station:TCOON:013:1,2019-06-02T18:24:00Z,27.4847,-97.3181,0.0,6.0,96.0,7.4,'11111222,11111222,11111222' 
TCOON,ioos:station:TCOON:013:1,2019-06-02T19:30:00Z,27.4847,-97.3181,0.0,5.9,119.0,8.0,'11111222,11111222,11111222' 
TCOON,ioos:station:TCOON:013:1,2019-06-02T20:30:00Z,27.4847,-97.3181,0.0,4.4,103.0,6.0,'11111222,11111222,11111222' 
TCOON,ioos:station:TCOON:013:1,2019-06-02T21:30:00Z,27.4847,-97.3181,0.0,6.6,95.0,8.5,'11111222,11111222,11111222' 
TCOON,ioos:station:TCOON:013:1,2019-06-02T22:30:00Z,27.4847,-97.3181,0.0,6.8,115.0,8.6,'11111222,11111222,11111222' 
TCOON,ioos:station:TCOON:013:1,2019-06-02T23:24:00Z,27.4847,-97.3181,0.0,6.4,104.0,8.6,'11111222,11111222,11111222' 
TCOON,ioos:station:TCOON:013:1,2019-06-03T00:24:00Z,27.4847,-97.3181,0.0,6.3,117.0,7.9,'11111222,11111222,11111222' 
TCOON,ioos:station:TCOON:013:1,2019-06-03T01:24:00Z,27.4847,-97.3181,0.0,6.4,114.0,8.3,'11111222,11111222,11111222' 
TCOON,ioos:station:TCOON:013:1,2019-06-03T02:24:00Z,27.4847,-97.3181,0.0,6.4,113.0,7.7,'11111222,11111222,11111222' 
TCOON,ioos:station:TCOON:013:1,2019-06-03T03:24:00Z,27.4847,-97.3181,0.0,6.9,125.0,8.0,'11111222,11111222,11111222' 
TCOON,ioos:station:TCOON:013:1,2019-06-03T04:24:00Z,27.4847,-97.3181,0.0,6.6,122.0,7.7,'11111222,11111222,11111222' 
TCOON,ioos:station:TCOON:013:1,2019-06-03T05:24:00Z,27.4847,-97.3181,0.0,7.3,129.0,8.4,'11111222,11111222,11111222' 
TCOON,ioos:station:TCOON:013:1,2019-06-03T06:24:00Z,27.4847,-97.3181,0.0,5.3,142.0,7.0,'11111222,11111222,11111222' 
TCOON,ioos:station:TCOON:013:1,2019-06-03T07:24:00Z,27.4847,-97.3181,0.0,5.7,141.0,7.5,'11111222,11111222,11111222' 
TCOON,ioos:station:TCOON:013:1,2019-06-03T08:24:00Z,27.4847,-97.3181,0.0,4.4,155.0,5.4,'11111222,11111222,11111222' 
TCOON,ioos:station:TCOON:013:1,2019-06-03T09:24:00Z,27.4847,-97.3181,0.0,4.4,154.0,5.1,'11111222,11111222,11111222' 
TCOON,ioos:station:TCOON:013:1,2019-06-03T10:30:00Z,27.4847,-97.3181,0.0,3.6,163.0,4.4,'11111222,11111222,11111222' 
TCOON,ioos:station:TCOON:013:1,2019-06-03T11:24:00Z,27.4847,-97.3181,0.0,1.7,145.0,2.5,'11111222,11111222,11111222' 
TCOON,ioos:station:TCOON:013:1,2019-06-03T12:30:00Z,27.4847,-97.3181,0.0,1.3,125.0,1.8,'11111222,11111222,11111222' 
TCOON,ioos:station:TCOON:013:1,2019-06-03T13:30:00Z,27.4847,-97.3181,0.0,4.0,129.0,5.0,'11111222,11111222,11111222' 
TCOON,ioos:station:TCOON:013:1,2019-06-03T14:30:00Z,27.4847,-97.3181,0.0,3.9,109.0,6.0,'11111222,11111222,11111222' 
TCOON,ioos:station:TCOON:013:1,2019-06-03T15:30:00Z,27.4847,-97.3181,0.0,4.9,114.0,6.1,'11111222,11111222,11111222' 
TCOON,ioos:station:TCOON:013:1,2019-06-03T16:30:00Z,27.4847,-97.3181,0.0,5.2,123.0,6.8,'11111222,11111222,11111222' 
TCOON,ioos:station:TCOON:013:1,2019-06-03T17:30:00Z,27.4847,-97.3181,0.0,5.0,106.0,8.5,'11111222,11111222,11111222' 
TCOON,ioos:station:TCOON:013:1,2019-06-03T18:30:00Z,27.4847,-97.3181,0.0,5.9,108.0,7.6,'11111222,11111222,11111222' 
TCOON,ioos:station:TCOON:013:1,2019-06-03T19:30:00Z,27.4847,-97.3181,0.0,5.9,93.0,6.8,'11111222,11111222,11111222' 
TCOON,ioos:station:TCOON:013:1,2019-06-03T20:30:00Z,27.4847,-97.3181,0.0,6.5,101.0,7.7,'11111222,11111222,11111222' 
TCOON,ioos:station:TCOON:013:1,2019-06-03T21:30:00Z,27.4847,-97.3181,0.0,7.2,95.0,9.2,'11111222,11111222,11111222' 
TCOON,ioos:station:TCOON:013:1,2019-06-03T22:30:00Z,27.4847,-97.3181,0.0,7.2,107.0,8.5,'11111222,11111222,11111222' 
TCOON,ioos:station:TCOON:013:1,2019-06-03T23:24:00Z,27.4847,-97.3181,0.0,7.9,100.0,9.8,'11111222,11111222,11111222' 
TCOON,ioos:station:TCOON:013:1,2019-06-04T00:24:00Z,27.4847,-97.3181,0.0,7.0,102.0,8.7,'11111222,11111222,11111222' 
TCOON,ioos:station:TCOON:013:1,2019-06-04T01:24:00Z,27.4847,-97.3181,0.0,7.3,100.0,8.7,'11111222,11111222,11111222' 
TCOON,ioos:station:TCOON:013:1,2019-06-04T02:24:00Z,27.4847,-97.3181,0.0,7.3,108.0,9.5,'11111222,11111222,11111222' 
TCOON,ioos:station:TCOON:013:1,2019-06-04T03:24:00Z,27.4847,-97.3181,0.0,6.7,111.0,9.2,'11111222,11111222,11111222' 
TCOON,ioos:station:TCOON:013:1,2019-06-04T04:24:00Z,27.4847,-97.3181,0.0,6.7,116.0,9.8,'11111222,11111222,11111222' 
TCOON,ioos:station:TCOON:013:1,2019-06-04T05:24:00Z,27.4847,-97.3181,0.0,6.0,126.0,8.4,'11111222,11111222,11111222' 
TCOON,ioos:station:TCOON:013:1,2019-06-04T06:24:00Z,27.4847,-97.3181,0.0,6.7,126.0,8.2,'11111222,11111222,11111222' 
TCOON,ioos:station:TCOON:013:1,2019-06-04T07:24:00Z,27.4847,-97.3181,0.0,5.6,120.0,7.2,'11111222,11111222,11111222' 
TCOON,ioos:station:TCOON:013:1,2019-06-04T08:30:00Z,27.4847,-97.3181,0.0,5.7,121.0,7.0,'11111222,11111222,11111222' 
TCOON,ioos:station:TCOON:013:1,2019-06-04T09:24:00Z,27.4847,-97.3181,0.0,5.0,116.0,6.0,'11111222,11111222,11111222' 
TCOON,ioos:station:TCOON:013:1,2019-06-04T10:30:00Z,27.4847,-97.3181,0.0,5.0,111.0,6.2,'11111222,11111222,11111222' 
TCOON,ioos:station:TCOON:013:1,2019-06-04T11:24:00Z,27.4847,-97.3181,0.0,3.0,119.0,3.9,'11111222,11111222,11111222' 
TCOON,ioos:station:TCOON:013:1,2019-06-04T12:24:00Z,27.4847,-97.3181,0.0,2.7,101.0,3.9,'11111222,11111222,11111222' 
TCOON,ioos:station:TCOON:013:1,2019-06-04T13:30:00Z,27.4847,-97.3181,0.0,3.9,94.0,5.0,'11111222,11111222,11111222' 
TCOON,ioos:station:TCOON:013:1,2019-06-04T14:30:00Z,27.4847,-97.3181,0.0,4.0,90.0,5.9,'11111222,11111222,11111222' 
TCOON,ioos:station:TCOON:013:1,2019-06-04T15:30:00Z,27.4847,-97.3181,0.0,6.7,78.0,8.1,'11111222,11111222,11111222' 
TCOON,ioos:station:TCOON:013:1,2019-06-04T16:30:00Z,27.4847,-97.3181,0.0,7.9,63.0,9.3,'11111222,11111222,11111222' 
TCOON,ioos:station:TCOON:013:1,2019-06-04T17:30:00Z,27.4847,-97.3181,0.0,7.9,71.0,9.2,'11111222,11111222,11111222' 
TCOON,ioos:station:TCOON:013:1,2019-06-04T18:30:00Z,27.4847,-97.3181,0.0,9.3,140.0,11.6,'11111222,11111222,11111222' 
TCOON,ioos:station:TCOON:013:1,2019-06-04T19:30:00Z,27.4847,-97.3181,0.0,8.5,130.0,10.7,'11111222,11111222,11111222' 
TCOON,ioos:station:TCOON:013:1,2019-06-04T20:30:00Z,27.4847,-97.3181,0.0,8.1,125.0,9.8,'11111222,11111222,11111222' 
TCOON,ioos:station:TCOON:013:1,2019-06-04T21:30:00Z,27.4847,-97.3181,0.0,6.0,121.0,8.2,'11111222,11111222,11111222' 
TCOON,ioos:station:TCOON:013:1,2019-06-04T22:30:00Z,27.4847,-97.3181,0.0,4.7,76.0,6.1,'11111222,11111222,11111222' 
TCOON,ioos:station:TCOON:013:1,2019-06-04T23:24:00Z,27.4847,-97.3181,0.0,5.9,96.0,7.3,'11111222,11111222,11111222' 
TCOON,ioos:station:TCOON:013:1,2019-06-05T00:24:00Z,27.4847,-97.3181,0.0,5.9,88.0,10.1,'11111222,11111222,11111222' 
TCOON,ioos:station:TCOON:013:1,2019-06-05T01:24:00Z,27.4847,-97.3181,0.0,6.3,99.0,7.6,'11111222,11111222,11111222' 
TCOON,ioos:station:TCOON:013:1,2019-06-05T02:30:00Z,27.4847,-97.3181,0.0,7.8,114.0,10.0,'11111222,11111222,11111222' 
TCOON,ioos:station:TCOON:013:1,2019-06-05T03:24:00Z,27.4847,-97.3181,0.0,6.9,114.0,9.1,'11111222,11111222,11111222' 
TCOON,ioos:station:TCOON:013:1,2019-06-05T04:30:00Z,27.4847,-97.3181,0.0,7.0,118.0,9.2,'11111222,11111222,11111222' 
TCOON,ioos:station:TCOON:013:1,2019-06-05T05:24:00Z,27.4847,-97.3181,0.0,6.4,125.0,8.2,'11111222,11111222,11111222' 
TCOON,ioos:station:TCOON:013:1,2019-06-05T06:24:00Z,27.4847,-97.3181,0.0,6.8,147.0,7.8,'11111222,11111222,11111222' 
TCOON,ioos:station:TCOON:013:1,2019-06-05T07:30:00Z,27.4847,-97.3181,0.0,5.6,162.0,7.0,'11111222,11111222,11111222' 
TCOON,ioos:station:TCOON:013:1,2019-06-05T08:24:00Z,27.4847,-97.3181,0.0,9.0,181.0,12.6,'11111222,11111222,11111222' 
TCOON,ioos:station:TCOON:013:1,2019-06-05T09:24:00Z,27.4847,-97.3181,0.0,8.5,176.0,10.1,'11111222,11111222,11111222' 
TCOON,ioos:station:TCOON:013:1,2019-06-05T10:30:00Z,27.4847,-97.3181,0.0,10.2,187.0,11.8,'11111222,11111222,11111222' 
TCOON,ioos:station:TCOON:013:1,2019-06-05T11:30:00Z,27.4847,-97.3181,0.0,6.4,243.0,8.3,'11111222,11111222,11111222' 
TCOON,ioos:station:TCOON:013:1,2019-06-05T12:30:00Z,27.4847,-97.3181,0.0,7.8,218.0,8.9,'11111222,11111222,11111222' 
TCOON,ioos:station:TCOON:013:1,2019-06-05T13:30:00Z,27.4847,-97.3181,0.0,3.9,257.0,4.4,'11111222,11111222,11111222' 
TCOON,ioos:station:TCOON:013:1,2019-06-05T14:30:00Z,27.4847,-97.3181,0.0,5.1,253.0,5.8,'11111222,11111222,11111222' 
TCOON,ioos:station:TCOON:013:1,2019-06-05T15:30:00Z,27.4847,-97.3181,0.0,6.6,256.0,8.4,'11111222,11111222,11111222' 
TCOON,ioos:station:TCOON:013:1,2019-06-05T16:30:00Z,27.4847,-97.3181,0.0,6.2,249.0,7.7,'11111222,11111222,11111222' 
TCOON,ioos:station:TCOON:013:1,2019-06-05T17:30:00Z,27.4847,-97.3181,0.0,5.7,267.0,7.8,'11111222,11111222,11111222' 
TCOON,ioos:station:TCOON:013:1,2019-06-05T18:30:00Z,27.4847,-97.3181,0.0,3.5,284.0,4.4,'11111222,11111222,11111222' 
TCOON,ioos:station:TCOON:013:1,2019-06-05T19:30:00Z,27.4847,-97.3181,0.0,3.4,326.0,4.4,'11111222,11111222,11111222' 
TCOON,ioos:station:TCOON:013:1,2019-06-05T20:30:00Z,27.4847,-97.3181,0.0,3.6,66.0,4.8,'11111222,11111222,11111222' 
TCOON,ioos:station:TCOON:013:1,2019-06-05T21:30:00Z,27.4847,-97.3181,0.0,3.7,129.0,4.5,'11111222,11111222,11111222' 
TCOON,ioos:station:TCOON:013:1,2019-06-05T22:30:00Z,27.4847,-97.3181,0.0,5.4,155.0,6.3,'11111222,11111222,11111222' 
TCOON,ioos:station:TCOON:013:1,2019-06-05T23:30:00Z,27.4847,-97.3181,0.0,6.8,154.0,8.3,'11111222,11111222,11111222' 
TCOON,ioos:station:TCOON:013:1,2019-06-06T00:24:00Z,27.4847,-97.3181,0.0,6.7,152.0,7.7,'11111222,11111222,11111222' 
TCOON,ioos:station:TCOON:013:1,2019-06-06T01:24:00Z,27.4847,-97.3181,0.0,6.1,153.0,7.5,'11111222,11111222,11111222' 
TCOON,ioos:station:TCOON:013:1,2019-06-06T02:24:00Z,27.4847,-97.3181,0.0,6.8,165.0,7.5,'11111222,11111222,11111222' 
TCOON,ioos:station:TCOON:013:1,2019-06-06T03:24:00Z,27.4847,-97.3181,0.0,6.8,162.0,8.4,'11111222,11111222,11111222' 
TCOON,ioos:station:TCOON:013:1,2019-06-06T04:24:00Z,27.4847,-97.3181,0.0,6.5,172.0,7.9,'11111222,11111222,11111222' 
TCOON,ioos:station:TCOON:013:1,2019-06-06T05:24:00Z,27.4847,-97.3181,0.0,5.3,177.0,7.9,'11111222,11111222,11111222' 
TCOON,ioos:station:TCOON:013:1,2019-06-06T06:24:00Z,27.4847,-97.3181,0.0,6.0,195.0,6.9,'11111222,11111222,11111222' 
TCOON,ioos:station:TCOON:013:1,2019-06-06T07:24:00Z,27.4847,-97.3181,0.0,5.4,207.0,6.5,'11111222,11111222,11111222' 
TCOON,ioos:station:TCOON:013:1,2019-06-06T08:24:00Z,27.4847,-97.3181,0.0,4.8,198.0,5.3,'11111222,11111222,11111222' 
TCOON,ioos:station:TCOON:013:1,2019-06-06T09:24:00Z,27.4847,-97.3181,0.0,3.8,204.0,5.1,'11111222,11111222,11111222' 
TCOON,ioos:station:TCOON:013:1,2019-06-06T10:24:00Z,27.4847,-97.3181,0.0,1.5,237.0,2.8,'11111222,11111222,11111222' 
TCOON,ioos:station:TCOON:013:1,2019-06-06T11:30:00Z,27.4847,-97.3181,0.0,2.3,105.0,2.6,'11111222,11111222,11111222' 
TCOON,ioos:station:TCOON:013:1,2019-06-06T12:30:00Z,27.4847,-97.3181,0.0,1.4,83.0,1.8,'11111222,11111222,11111222' 
TCOON,ioos:station:TCOON:013:1,2019-06-06T13:30:00Z,27.4847,-97.3181,0.0,3.1,10.0,3.7,'11111222,11111222,11111222' 
TCOON,ioos:station:TCOON:013:1,2019-06-06T14:30:00Z,27.4847,-97.3181,0.0,4.9,80.0,5.9,'11111222,11111222,11111222' 
TCOON,ioos:station:TCOON:013:1,2019-06-06T15:30:00Z,27.4847,-97.3181,0.0,2.9,118.0,4.4,'11111222,11111222,11111222' 
TCOON,ioos:station:TCOON:013:1,2019-06-06T16:30:00Z,27.4847,-97.3181,0.0,3.8,154.0,5.5,'11111222,11111222,11111222' 
TCOON,ioos:station:TCOON:013:1,2019-06-06T17:30:00Z,27.4847,-97.3181,0.0,5.4,145.0,6.7,'11111222,11111222,11111222' 
TCOON,ioos:station:TCOON:013:1,2019-06-06T18:30:00Z,27.4847,-97.3181,0.0,4.6,138.0,5.6,'11111222,11111222,11111222' 
TCOON,ioos:station:TCOON:013:1,2019-06-06T19:30:00Z,27.4847,-97.3181,0.0,4.7,148.0,6.2,'11111222,11111222,11111222' 
TCOON,ioos:station:TCOON:013:1,2019-06-06T20:30:00Z,27.4847,-97.3181,0.0,5.3,123.0,6.2,'11111222,11111222,11111222' 
TCOON,ioos:station:TCOON:013:1,2019-06-06T21:24:00Z,27.4847,-97.3181,0.0,6.2,119.0,7.1,'11111222,11111222,11111222' 
TCOON,ioos:station:TCOON:013:1,2019-06-06T22:24:00Z,27.4847,-97.3181,0.0,7.7,127.0,9.6,'11111222,11111222,11111222' 
TCOON,ioos:station:TCOON:013:1,2019-06-06T23:24:00Z,27.4847,-97.3181,0.0,8.8,129.0,10.9,'11111222,11111222,11111222' 
TCOON,ioos:station:TCOON:013:1,2019-06-07T00:24:00Z,27.4847,-97.3181,0.0,7.7,137.0,9.8,'11111222,11111222,11111222' 
TCOON,ioos:station:TCOON:013:1,2019-06-07T01:24:00Z,27.4847,-97.3181,0.0,7.2,245.0,11.0,'11111222,11111222,11111222' 
TCOON,ioos:station:TCOON:013:1,2019-06-07T02:24:00Z,27.4847,-97.3181,0.0,6.7,122.0,8.2,'11111222,11111222,11111222' 
TCOON,ioos:station:TCOON:013:1,2019-06-07T03:24:00Z,27.4847,-97.3181,0.0,5.2,67.0,9.2,'11111222,11111222,11111222' 
TCOON,ioos:station:TCOON:013:1,2019-06-07T04:24:00Z,27.4847,-97.3181,0.0,3.8,169.0,5.2,'11111222,11111222,11111222' 
TCOON,ioos:station:TCOON:013:1,2019-06-07T05:24:00Z,27.4847,-97.3181,0.0,3.2,128.0,4.5,'11111222,11111222,11111222' 
TCOON,ioos:station:TCOON:013:1,2019-06-07T06:24:00Z,27.4847,-97.3181,0.0,6.2,145.0,7.9,'11111222,11111222,11111222' 
TCOON,ioos:station:TCOON:013:1,2019-06-07T07:24:00Z,27.4847,-97.3181,0.0,3.3,170.0,5.4,'11111222,11111222,11111222' 
TCOON,ioos:station:TCOON:013:1,2019-06-07T08:24:00Z,27.4847,-97.3181,0.0,5.1,171.0,6.3,'11111222,11111222,11111222' 
TCOON,ioos:station:TCOON:013:1,2019-06-07T09:24:00Z,27.4847,-97.3181,0.0,6.6,181.0,7.6,'11111222,11111222,11111222' 
TCOON,ioos:station:TCOON:013:1,2019-06-07T10:24:00Z,27.4847,-97.3181,0.0,4.2,180.0,4.9,'11111222,11111222,11111222' 
TCOON,ioos:station:TCOON:013:1,2019-06-07T11:24:00Z,27.4847,-97.3181,0.0,3.9,195.0,4.6,'11111222,11111222,11111222' 
TCOON,ioos:station:TCOON:013:1,2019-06-07T12:24:00Z,27.4847,-97.3181,0.0,4.7,216.0,5.7,'11111222,11111222,11111222' 
TCOON,ioos:station:TCOON:013:1,2019-06-07T13:30:00Z,27.4847,-97.3181,0.0,3.4,216.0,4.4,'11111222,11111222,11111222' 
TCOON,ioos:station:TCOON:013:1,2019-06-07T14:30:00Z,27.4847,-97.3181,0.0,4.4,187.0,5.6,'11111222,11111222,11111222' 
TCOON,ioos:station:TCOON:013:1,2019-06-07T15:30:00Z,27.4847,-97.3181,0.0,3.7,195.0,4.5,'11111222,11111222,11111222' 
TCOON,ioos:station:TCOON:013:1,2019-06-07T16:30:00Z,27.4847,-97.3181,0.0,3.1,177.0,3.8,'11111222,11111222,11111222' 
TCOON,ioos:station:TCOON:013:1,2019-06-07T17:30:00Z,27.4847,-97.3181,0.0,1.8,174.0,2.3,'11111222,11111222,11111222' 
TCOON,ioos:station:TCOON:013:1,2019-06-07T18:30:00Z,27.4847,-97.3181,0.0,0.6,251.0,1.1,'11111222,11111222,11111222' 
TCOON,ioos:station:TCOON:013:1,2019-06-07T19:30:00Z,27.4847,-97.3181,0.0,2.8,109.0,3.3,'11111222,11111222,11111222' 
TCOON,ioos:station:TCOON:013:1,2019-06-07T20:30:00Z,27.4847,-97.3181,0.0,3.6,132.0,4.7,'11111222,11111222,11111222' 
TCOON,ioos:station:TCOON:013:1,2019-06-07T21:30:00Z,27.4847,-97.3181,0.0,4.7,112.0,6.0,'11111222,11111222,11111222' 
TCOON,ioos:station:TCOON:013:1,2019-06-07T22:30:00Z,27.4847,-97.3181,0.0,5.9,117.0,6.8,'11111222,11111222,11111222' 
TCOON,ioos:station:TCOON:013:1,2019-06-07T23:24:00Z,27.4847,-97.3181,0.0,7.6,135.0,8.8,'11111222,11111222,11111222' 
TCOON,ioos:station:TCOON:013:1,2019-06-08T00:24:00Z,27.4847,-97.3181,0.0,6.1,137.0,7.5,'11111222,11111222,11111222' 
TCOON,ioos:station:TCOON:013:1,2019-06-08T01:24:00Z,27.4847,-97.3181,0.0,5.4,164.0,6.0,'11111222,11111222,11111222' 
TCOON,ioos:station:TCOON:013:1,2019-06-08T02:24:00Z,27.4847,-97.3181,0.0,4.6,161.0,5.5,'11111222,11111222,11111222' 
TCOON,ioos:station:TCOON:013:1,2019-06-08T03:24:00Z,27.4847,-97.3181,0.0,5.1,159.0,5.8,'11111222,11111222,11111222' 
TCOON,ioos:station:TCOON:013:1,2019-06-08T04:24:00Z,27.4847,-97.3181,0.0,4.6,164.0,5.4,'11111222,11111222,11111222' 
TCOON,ioos:station:TCOON:013:1,2019-06-08T05:24:00Z,27.4847,-97.3181,0.0,4.2,170.0,5.3,'11111222,11111222,11111222' 
TCOON,ioos:station:TCOON:013:1,2019-06-08T06:24:00Z,27.4847,-97.3181,0.0,5.0,175.0,6.1,'11111222,11111222,11111222' 
TCOON,ioos:station:TCOON:013:1,2019-06-08T07:24:00Z,27.4847,-97.3181,0.0,3.6,172.0,4.6,'11111222,11111222,11111222' 
TCOON,ioos:station:TCOON:013:1,2019-06-08T08:24:00Z,27.4847,-97.3181,0.0,4.3,223.0,5.1,'11111222,11111222,11111222' 
TCOON,ioos:station:TCOON:013:1,2019-06-08T09:30:00Z,27.4847,-97.3181,0.0,0.6,201.0,1.4,'11111222,11111222,11111222' 
TCOON,ioos:station:TCOON:013:1,2019-06-08T10:24:00Z,27.4847,-97.3181,0.0,0.9,143.0,1.2,'11111222,11111222,11111222' 
TCOON,ioos:station:TCOON:013:1,2019-06-08T11:24:00Z,27.4847,-97.3181,0.0,1.3,97.0,1.7,'11111222,11111222,11111222' 
TCOON,ioos:station:TCOON:013:1,2019-06-08T12:24:00Z,27.4847,-97.3181,0.0,1.2,84.0,1.4,'11111222,11111222,11111222' 
TCOON,ioos:station:TCOON:013:1,2019-06-08T13:24:00Z,27.4847,-97.3181,0.0,1.7,148.0,2.2,'11111222,11111222,11111222' 
TCOON,ioos:station:TCOON:013:1,2019-06-08T14:30:00Z,27.4847,-97.3181,0.0,0.1,356.0,1.0,'11111222,11111222,11111222' 
TCOON,ioos:station:TCOON:013:1,2019-06-08T15:24:00Z,27.4847,-97.3181,0.0,1.0,8.0,1.4,'11111222,11111222,11111222' 
TCOON,ioos:station:TCOON:013:1,2019-06-08T16:36:00Z,27.4847,-97.3181,0.0,2.2,13.0,2.7,'11111222,11111222,11111222' 
TCOON,ioos:station:TCOON:013:1,2019-06-08T17:36:00Z,27.4847,-97.3181,0.0,2.3,24.0,3.6,'11111222,11111222,11111222' 
TCOON,ioos:station:TCOON:013:1,2019-06-08T18:24:00Z,27.4847,-97.3181,0.0,4.0,79.0,5.9,'11111222,11111222,11111222' 
TCOON,ioos:station:TCOON:013:1,2019-06-09T00:12:00Z,27.4847,-97.3181,0.0,5.9,110.0,7.2,'11111222,11111222,11111222' 
TCOON,ioos:station:TCOON:013:1,2019-06-09T01:24:00Z,27.4847,-97.3181,0.0,5.2,124.0,6.3,'11111222,11111222,11111222' 
TCOON,ioos:station:TCOON:013:1,2019-06-09T02:24:00Z,27.4847,-97.3181,0.0,6.0,127.0,6.9,'11111222,11111222,11111222' 
TCOON,ioos:station:TCOON:013:1,2019-06-09T03:24:00Z,27.4847,-97.3181,0.0,5.8,139.0,7.2,'11111222,11111222,11111222' 
TCOON,ioos:station:TCOON:013:1,2019-06-09T04:24:00Z,27.4847,-97.3181,0.0,5.4,147.0,6.2,'11111222,11111222,11111222' 
TCOON,ioos:station:TCOON:013:1,2019-06-09T05:24:00Z,27.4847,-97.3181,0.0,4.5,150.0,5.8,'11111222,11111222,11111222' 
TCOON,ioos:station:TCOON:013:1,2019-06-09T06:24:00Z,27.4847,-97.3181,0.0,4.4,156.0,4.9,'11111222,11111222,11111222' 
TCOON,ioos:station:TCOON:013:1,2019-06-09T07:24:00Z,27.4847,-97.3181,0.0,3.5,147.0,4.0,'11111222,11111222,11111222' 
TCOON,ioos:station:TCOON:013:1,2019-06-09T08:24:00Z,27.4847,-97.3181,0.0,4.8,151.0,5.8,'11111222,11111222,11111222' 
TCOON,ioos:station:TCOON:013:1,2019-06-09T09:24:00Z,27.4847,-97.3181,0.0,4.4,148.0,5.4,'11111222,11111222,11111222' 
TCOON,ioos:station:TCOON:013:1,2019-06-09T10:24:00Z,27.4847,-97.3181,0.0,4.4,152.0,5.4,'11111222,11111222,11111222' 
TCOON,ioos:station:TCOON:013:1,2019-06-09T11:24:00Z,27.4847,-97.3181,0.0,3.3,137.0,3.8,'11111222,11111222,11111222' 
TCOON,ioos:station:TCOON:013:1,2019-06-09T12:24:00Z,27.4847,-97.3181,0.0,2.9,164.0,4.0,'11111222,11111222,11111222' 
TCOON,ioos:station:TCOON:013:1,2019-06-09T13:24:00Z,27.4847,-97.3181,0.0,3.6,151.0,4.8,'11111222,11111222,11111222' 
TCOON,ioos:station:TCOON:013:1,2019-06-09T14:30:00Z,27.4847,-97.3181,0.0,4.5,163.0,5.5,'11111222,11111222,11111222' 
TCOON,ioos:station:TCOON:013:1,2019-06-09T15:24:00Z,27.4847,-97.3181,0.0,5.2,133.0,6.3,'11111222,11111222,11111222' 
TCOON,ioos:station:TCOON:013:1,2019-06-09T16:24:00Z,27.4847,-97.3181,0.0,5.3,152.0,6.0,'11111222,11111222,11111222' 